STARLINK-31678, 59493

Orbit data source: Space-Track

STARLINK-31678, 59493 is a payload satellite owned by SpaceX/Seattle (US) in LEO that was launched on Sat, 13 Apr 2024 UTC via an FALCON 9 launch vehicle from the Air Force Eastern Test Range (AFETR). Payload-class satellites include a variety of spacecraft equipped with specific instruments for various scientific and technological missions. These include communications satellites like Starlink; space stations such as the ISS; scientific satellites like the Hubble; Earth observation satellites from companies like Planet Labs, Umbra, and HawkEye 360; GPS; miniature CubeSats for education and research; and military/defense satellites.

Loading next visibility...
Identifier
59493, 2024-071K
Orbit
LEO
Country
Flag of USUS
Related business
Manufacturer
SpaceX/Seattle
Mission
Operational Commercial Communications
Bus & Motor
STARLINK V2M, Unknown motor
Mass
730 kg wet, ~700 kg dry
Launch date (UTC)
2024-04-13 (2 years ago)
Launch vehicle
FALCON 9
Launch site
Air Force Eastern Test Range (AFETR)
Object type
Payload
Rocket body
Debris
Shape & HBR
Box + 2 Pan, 17.7 m
Radar Cross Section
33.884 m², Large (>1 m²)

Expand to show TLE details & history
Last TLE update: 3 days ago

TLE from 3 days ago
0 STARLINK-31678
1 59493U 24071K   26170.93592148  .00000345  00000-0  22049-4 0  9994
2 59493  43.0028 130.0301 0001219 279.1137  80.9576 15.27574784122572
Epoch: 2026-06-19T22:27Z
TLE epoch observation values (Epoch: 2026-06-19T22:27:43.615Z)
Latitude
-0.00009°
Longitude
-115.05947°
Altitude
482.709 km
Speed
7.626 km/s
True Right ascension
08h 40m 07s
True Declination
0° 00' 00"
Sunlit
Object was in daylight at epoch
Visualization orbit readout
Latitude
Unknown
Longitude
Unknown
Altitude
Unknown
Speed
Unknown
Apparent Right ascension
Unknown
Apparent Declination
Unknown
Sunlit
N/A
Visualization observer readout
Local Sidereal Time
21:32:26
Azimuth
Unknown
Elevation
Unknown
Doppler factor
Unknown
Orbital elements
Apogee altitude
485.846 km
Perigee altitude
484.173 km
Semi-major axis
6,863.146 km
Eccentricity
0.00012
Inclination
43.0028°
RAAN
130.0301°
Arg. of periapsis
279.1137°
True anomaly
80.9714°
Mean anomaly
80.9576°
Eccentric anomaly
80.9645°
Mean motion
3.81732 °/min
Orbital period
94.31 mins
BSTAR
0.000022049
Loading maneuver chart data...
Computing Atmospheric mass density...
Loading historical data...
Loading historical data...
Loading historical data...
Loading historical data...
Loading historical data...
Loading historical data...
Loading historical data...

Documentation

Showing up to 5 results
|